Time,TemperatureF,DewpointF,PressureIn,WindDirection,WindDirectionDegrees,WindSpeedMPH,WindSpeedGustMPH,Humidity,HourlyPrecipIn,Conditions,Clouds,dailyrainin,SoftwareType,DateUTC
2013-04-18 00:02:00,50.7,4.6,30.18,NNW,331,4.0,10.0,15,0.00,,,0.00,WUHU216DAVISVP2,2013-04-18 07:02:00,
2013-04-18 00:07:00,49.9,4.0,30.18,NNW,331,2.0,9.0,15,0.00,,,0.00,WUHU216DAVISVP2,2013-04-18 07:07:00,
2013-04-18 00:13:00,48.8,4.5,30.18,NNW,344,2.0,8.0,16,0.00,,,0.00,WUHU216DAVISVP2,2013-04-18 07:13:00,
2013-04-18 00:18:00,47.8,5.0,30.18,NNW,344,4.0,8.0,17,0.00,,,0.00,WUHU216DAVISVP2,2013-04-18 07:18:00,
2013-04-18 00:23:00,47.3,4.6,30.19,NE,41,11.0,11.0,17,0.00,,,0.00,WUHU216DAVISVP2,2013-04-18 07:23:00,
2013-04-18 00:28:00,49.3,7.5,30.19,NNE,21,9.0,11.0,18,0.00,,,0.00,WUHU216DAVISVP2,2013-04-18 07:28:00,
2013-04-18 00:33:00,51.4,8.0,30.19,NNE,18,10.0,13.0,17,0.00,,,0.00,WUHU216DAVISVP2,2013-04-18 07:33:00,
2013-04-18 00:38:00,52.3,7.4,30.19,NE,34,12.0,14.0,16,0.00,,,0.00,WUHU216DAVISVP2,2013-04-18 07:38:00,
2013-04-18 00:43:00,52.4,7.4,30.19,NNE,13,9.0,14.0,16,0.00,,,0.00,WUHU216DAVISVP2,2013-04-18 07:43:00,
2013-04-18 00:48:00,52.1,7.2,30.19,North,5,7.0,14.0,16,0.00,,,0.00,WUHU216DAVISVP2,2013-04-18 07:48:00,
2013-04-18 00:53:00,51.7,6.9,30.20,NNE,21,3.0,14.0,16,0.00,,,0.00,WUHU216DAVISVP2,2013-04-18 07:53:00,
2013-04-18 00:58:00,51.2,6.5,30.20,NE,34,3.0,11.0,16,0.00,,,0.00,WUHU216DAVISVP2,2013-04-18 07:58:00,
2013-04-18 01:03:00,51.2,7.8,30.20,NE,34,11.0,11.0,17,0.00,,,0.00,WUHU216DAVISVP2,2013-04-18 08:03:00,
2013-04-18 01:08:00,52.3,7.4,30.20,NNE,32,11.0,12.0,16,0.00,,,0.00,WUHU216DAVISVP2,2013-04-18 08:08:00,
2013-04-18 01:13:00,52.6,7.6,30.20,NE,43,11.0,15.0,16,0.00,,,0.00,WUHU216DAVISVP2,2013-04-18 08:13:00,
2013-04-18 01:18:00,52.6,7.6,30.19,NNE,28,11.0,15.0,16,0.00,,,0.00,WUHU216DAVISVP2,2013-04-18 08:18:00,
2013-04-18 01:24:00,52.6,7.6,30.19,NE,36,7.0,15.0,16,0.00,,,0.00,WUHU216DAVISVP2,2013-04-18 08:24:00,
2013-04-18 01:29:00,52.3,7.4,30.20,NE,46,8.0,15.0,16,0.00,,,0.00,WUHU216DAVISVP2,2013-04-18 08:29:00,
2013-04-18 01:34:00,52.2,7.3,30.20,NE,54,9.0,14.0,16,0.00,,,0.00,WUHU216DAVISVP2,2013-04-18 08:34:00,
2013-04-18 01:39:00,52.2,7.3,30.19,NNE,33,6.0,14.0,16,0.00,,,0.00,WUHU216DAVISVP2,2013-04-18 08:39:00,
2013-04-18 01:44:00,51.9,7.0,30.19,NE,34,7.0,13.0,16,0.00,,,0.00,WUHU216DAVISVP2,2013-04-18 08:44:00,
2013-04-18 01:49:00,51.7,6.9,30.19,NE,49,8.0,13.0,16,0.00,,,0.00,WUHU216DAVISVP2,2013-04-18 08:49:00,
2013-04-18 01:54:00,51.7,6.9,30.19,NNE,25,7.0,12.0,16,0.00,,,0.00,WUHU216DAVISVP2,2013-04-18 08:54:00,
2013-04-18 01:59:00,51.6,6.8,30.19,NNE,24,10.0,12.0,16,0.00,,,0.00,WUHU216DAVISVP2,2013-04-18 08:59:00,
2013-04-18 02:04:00,51.3,7.9,30.19,NNE,22,6.0,12.0,17,0.00,,,0.00,WUHU216DAVISVP2,2013-04-18 09:04:00,
2013-04-18 02:09:00,50.7,7.4,30.19,NNE,17,4.0,12.0,17,0.00,,,0.00,WUHU216DAVISVP2,2013-04-18 09:09:00,
2013-04-18 02:14:00,49.6,6.5,30.20,NNE,17,2.0,12.0,17,0.00,,,0.00,WUHU216DAVISVP2,2013-04-18 09:14:00,
2013-04-18 02:19:00,48.0,6.4,30.20,NNE,17,2.0,11.0,18,0.00,,,0.00,WUHU216DAVISVP2,2013-04-18 09:19:00,
2013-04-18 02:24:00,47.4,7.1,30.20,NNE,17,1.0,8.0,19,0.00,,,0.00,WUHU216DAVISVP2,2013-04-18 09:24:00,
2013-04-18 02:30:00,47.0,6.8,30.20,NNE,17,2.0,4.0,19,0.00,,,0.00,WUHU216DAVISVP2,2013-04-18 09:30:00,
2013-04-18 02:35:00,46.8,6.6,30.20,NNE,17,2.0,4.0,19,0.00,,,0.00,WUHU216DAVISVP2,2013-04-18 09:35:00,
2013-04-18 02:40:00,47.1,8.0,30.20,NE,43,4.0,7.0,20,0.00,,,0.00,WUHU216DAVISVP2,2013-04-18 09:40:00,
2013-04-18 02:45:00,47.8,7.5,30.20,NNE,31,3.0,9.0,19,0.00,,,0.00,WUHU216DAVISVP2,2013-04-18 09:45:00,
2013-04-18 02:50:00,48.3,7.9,30.20,NNE,31,1.0,9.0,19,0.00,,,0.00,WUHU216DAVISVP2,2013-04-18 09:50:00,
2013-04-18 02:55:00,48.5,8.0,30.20,NNE,30,3.0,9.0,19,0.00,,,0.00,WUHU216DAVISVP2,2013-04-18 09:55:00,
2013-04-18 03:00:00,48.8,7.1,30.20,NNE,24,2.0,9.0,18,0.00,,,0.00,WUHU216DAVISVP2,2013-04-18 10:00:00,
2013-04-18 03:05:00,48.9,7.2,30.20,NNE,24,4.0,7.0,18,0.00,,,0.00,WUHU216DAVISVP2,2013-04-18 10:05:00,
2013-04-18 03:10:00,49.0,7.3,30.20,NNE,19,5.0,10.0,18,0.00,,,0.00,WUHU216DAVISVP2,2013-04-18 10:10:00,
2013-04-18 03:15:00,49.6,7.8,30.20,NE,40,8.0,13.0,18,0.00,,,0.00,WUHU216DAVISVP2,2013-04-18 10:15:00,
2013-04-18 03:20:00,49.8,6.7,30.20,NNE,33,7.0,13.0,17,0.00,,,0.00,WUHU216DAVISVP2,2013-04-18 10:20:00,
2013-04-18 03:25:00,49.8,6.7,30.20,NE,34,6.0,13.0,17,0.00,,,0.00,WUHU216DAVISVP2,2013-04-18 10:25:00,
2013-04-18 03:30:00,49.4,6.3,30.20,NNE,26,3.0,13.0,17,0.00,,,0.00,WUHU216DAVISVP2,2013-04-18 10:30:00,
2013-04-18 03:36:00,49.0,6.0,30.20,North,11,6.0,11.0,17,0.00,,,0.00,WUHU216DAVISVP2,2013-04-18 10:36:00,
2013-04-18 03:41:00,49.0,6.0,30.20,NNE,17,4.0,11.0,17,0.00,,,0.00,WUHU216DAVISVP2,2013-04-18 10:41:00,
2013-04-18 03:46:00,48.8,5.8,30.20,NNE,17,6.0,11.0,17,0.00,,,0.00,WUHU216DAVISVP2,2013-04-18 10:46:00,
2013-04-18 03:51:00,48.6,5.7,30.20,NNE,18,3.0,11.0,17,0.00,,,0.00,WUHU216DAVISVP2,2013-04-18 10:51:00,
2013-04-18 03:56:00,48.3,5.4,30.20,NNE,18,1.0,8.0,17,0.00,,,0.00,WUHU216DAVISVP2,2013-04-18 10:56:00,
2013-04-18 04:01:00,48.2,5.4,30.20,NNW,346,3.0,8.0,17,0.00,,,0.00,WUHU216DAVISVP2,2013-04-18 11:01:00,
2013-04-18 04:06:00,48.2,5.4,30.21,NNE,13,3.0,7.0,17,0.00,,,0.00,WUHU216DAVISVP2,2013-04-18 11:06:00,
2013-04-18 04:11:00,48.3,5.4,30.21,NNE,24,7.0,10.0,17,0.00,,,0.00,WUHU216DAVISVP2,2013-04-18 11:11:00,
2013-04-18 04:16:00,48.3,5.4,30.21,North,355,4.0,10.0,17,0.00,,,0.00,WUHU216DAVISVP2,2013-04-18 11:16:00,
2013-04-18 04:21:00,47.4,4.7,30.21,North,355,2.0,10.0,17,0.00,,,0.00,WUHU216DAVISVP2,2013-04-18 11:21:00,
2013-04-18 04:26:00,46.8,5.5,30.21,North,355,3.0,10.0,18,0.00,,,0.00,WUHU216DAVISVP2,2013-04-18 11:26:00,
2013-04-18 04:32:00,46.1,4.9,30.21,North,355,4.0,9.0,18,0.00,,,0.00,WUHU216DAVISVP2,2013-04-18 11:32:00,
2013-04-18 04:37:00,45.4,4.3,30.21,North,355,4.0,5.0,18,0.00,,,0.00,WUHU216DAVISVP2,2013-04-18 11:37:00,
2013-04-18 04:42:00,44.9,5.1,30.21,North,355,2.0,6.0,19,0.00,,,0.00,WUHU216DAVISVP2,2013-04-18 11:42:00,
2013-04-18 04:47:00,43.6,7.2,30.21,North,355,1.0,6.0,22,0.00,,,0.00,WUHU216DAVISVP2,2013-04-18 11:47:00,
2013-04-18 04:52:00,42.5,10.0,30.21,North,355,2.0,6.0,26,0.00,,,0.00,WUHU216DAVISVP2,2013-04-18 11:52:00,
2013-04-18 04:57:00,42.1,10.5,30.21,North,355,4.0,4.0,27,0.00,,,0.00,WUHU216DAVISVP2,2013-04-18 11:57:00,
2013-04-18 05:02:00,42.3,9.7,30.22,North,355,3.0,4.0,26,0.00,,,0.00,WUHU216DAVISVP2,2013-04-18 12:02:00,
2013-04-18 05:07:00,42.0,9.4,30.22,North,355,4.0,4.0,26,0.00,,,0.00,WUHU216DAVISVP2,2013-04-18 12:07:00,
2013-04-18 05:12:00,41.2,9.5,30.22,North,355,2.0,4.0,27,0.00,,,0.00,WUHU216DAVISVP2,2013-04-18 12:12:00,
2013-04-18 05:17:00,40.8,9.2,30.22,North,355,3.0,4.0,27,0.00,,,0.00,WUHU216DAVISVP2,2013-04-18 12:17:00,
2013-04-18 05:22:00,40.8,9.2,30.22,North,355,4.0,5.0,27,0.00,,,0.00,WUHU216DAVISVP2,2013-04-18 12:22:00,
2013-04-18 05:27:00,39.8,8.3,30.23,North,355,5.0,6.0,27,0.00,,,0.00,WUHU216DAVISVP2,2013-04-18 12:27:00,
2013-04-18 05:33:00,39.6,8.3,30.23,North,355,4.0,6.0,27,0.00,,,0.00,WUHU216DAVISVP2,2013-04-18 12:33:00,
2013-04-18 05:38:00,39.4,7.3,30.23,North,355,3.0,6.0,26,0.00,,,0.00,WUHU216DAVISVP2,2013-04-18 12:38:00,
2013-04-18 05:43:00,39.6,7.5,30.23,North,355,6.0,6.0,26,0.00,,,0.00,WUHU216DAVISVP2,2013-04-18 12:43:00,
2013-04-18 05:48:00,40.0,7.7,30.23,North,355,5.0,7.0,26,0.00,,,0.00,WUHU216DAVISVP2,2013-04-18 12:48:00,
2013-04-18 05:53:00,39.9,6.7,30.23,North,355,5.0,7.0,25,0.00,,,0.00,WUHU216DAVISVP2,2013-04-18 12:53:00,
2013-04-18 05:58:00,39.3,7.1,30.23,North,355,3.0,7.0,26,0.00,,,0.00,WUHU216DAVISVP2,2013-04-18 12:58:00,
2013-04-18 06:03:00,38.4,6.3,30.24,North,355,1.0,7.0,26,0.00,,,0.00,WUHU216DAVISVP2,2013-04-18 13:03:00,
2013-04-18 06:08:00,38.0,6.0,30.24,North,355,0.0,5.0,26,0.00,,,0.00,WUHU216DAVISVP2,2013-04-18 13:08:00,
2013-04-18 06:13:00,37.4,7.2,30.24,North,355,3.0,5.0,28,0.00,,,0.00,WUHU216DAVISVP2,2013-04-18 13:13:00,
2013-04-18 06:18:00,37.7,6.7,30.24,NNW,346,3.0,5.0,27,0.00,,,0.00,WUHU216DAVISVP2,2013-04-18 13:18:00,
2013-04-18 06:23:00,37.5,6.5,30.25,NNW,346,3.0,5.0,27,0.00,,,0.00,WUHU216DAVISVP2,2013-04-18 13:23:00,
2013-04-18 06:28:00,37.4,5.4,30.25,NNW,346,5.0,7.0,26,0.00,,,0.00,WUHU216DAVISVP2,2013-04-18 13:28:00,
2013-04-18 06:33:00,37.6,5.6,30.25,NNW,346,3.0,7.0,26,0.00,,,0.00,WUHU216DAVISVP2,2013-04-18 13:33:00,
2013-04-18 06:39:00,37.5,5.5,30.25,NNW,346,4.0,7.0,26,0.00,,,0.00,WUHU216DAVISVP2,2013-04-18 13:39:00,
2013-04-18 06:44:00,38.2,5.3,30.25,NNW,346,5.0,7.0,25,0.00,,,0.00,WUHU216DAVISVP2,2013-04-18 13:44:00,
2013-04-18 06:49:00,39.2,5.3,30.25,NNW,346,5.0,7.0,24,0.00,,,0.00,WUHU216DAVISVP2,2013-04-18 13:49:00,
2013-04-18 06:54:00,39.9,5.0,30.25,NNW,339,3.0,7.0,23,0.00,,,0.00,WUHU216DAVISVP2,2013-04-18 13:54:00,
2013-04-18 06:59:00,40.3,5.4,30.26,NNW,339,4.0,7.0,23,0.00,,,0.00,WUHU216DAVISVP2,2013-04-18 13:59:00,
2013-04-18 07:04:00,40.9,5.9,30.26,NNW,339,3.0,7.0,23,0.00,,,0.00,WUHU216DAVISVP2,2013-04-18 14:04:00,
2013-04-18 07:09:00,41.6,6.4,30.26,NNW,339,3.0,6.0,23,0.00,,,0.00,WUHU216DAVISVP2,2013-04-18 14:09:00,
2013-04-18 07:14:00,42.3,6.0,30.26,NNW,339,2.0,6.0,22,0.00,,,0.00,WUHU216DAVISVP2,2013-04-18 14:14:00,
2013-04-18 07:19:00,42.9,6.5,30.26,NNW,339,1.0,5.0,22,0.00,,,0.00,WUHU216DAVISVP2,2013-04-18 14:19:00,
2013-04-18 07:24:00,43.3,6.9,30.26,NNW,339,0.0,4.0,22,0.00,,,0.00,WUHU216DAVISVP2,2013-04-18 14:24:00,
2013-04-18 07:29:00,43.8,7.3,30.26,NNW,339,1.0,4.0,22,0.00,,,0.00,WUHU216DAVISVP2,2013-04-18 14:29:00,
2013-04-18 07:34:00,44.4,7.8,30.26,NNW,339,3.0,3.0,22,0.00,,,0.00,WUHU216DAVISVP2,2013-04-18 14:34:00,
2013-04-18 07:40:00,45.1,8.5,30.26,NNW,339,2.0,3.0,22,0.00,,,0.00,WUHU216DAVISVP2,2013-04-18 14:40:00,
2013-04-18 07:45:00,45.7,7.9,30.26,NNW,339,2.0,3.0,21,0.00,,,0.00,WUHU216DAVISVP2,2013-04-18 14:45:00,
2013-04-18 07:50:00,46.3,7.3,30.26,NNW,339,0.0,3.0,20,0.00,,,0.00,WUHU216DAVISVP2,2013-04-18 14:50:00,
2013-04-18 07:55:00,47.6,7.3,30.26,NNW,339,0.0,4.0,19,0.00,,,0.00,WUHU216DAVISVP2,2013-04-18 14:55:00,
2013-04-18 08:00:00,48.9,5.9,30.27,NNW,339,0.0,4.0,17,0.00,,,0.00,WUHU216DAVISVP2,2013-04-18 15:00:00,
2013-04-18 08:05:00,50.2,7.0,30.27,NNW,340,4.0,4.0,17,0.00,,,0.00,WUHU216DAVISVP2,2013-04-18 15:05:00,
2013-04-18 08:10:00,52.0,5.7,30.27,NNE,26,8.0,12.0,15,0.00,,,0.00,WUHU216DAVISVP2,2013-04-18 15:10:00,
2013-04-18 08:15:00,53.5,5.4,30.27,NE,36,7.0,13.0,14,0.00,,,0.00,WUHU216DAVISVP2,2013-04-18 15:15:00,
2013-04-18 08:20:00,54.2,4.3,30.27,NNE,17,14.0,19.0,13,0.00,,,0.00,WUHU216DAVISVP2,2013-04-18 15:20:00,
2013-04-18 08:25:00,54.4,4.4,30.27,NNE,25,11.0,19.0,13,0.00,,,0.00,WUHU216DAVISVP2,2013-04-18 15:25:00,
2013-04-18 08:30:00,54.6,4.6,30.27,North,5,9.0,20.0,13,0.00,,,0.00,WUHU216DAVISVP2,2013-04-18 15:30:00,
2013-04-18 08:36:00,55.0,4.9,30.27,North,355,10.0,20.0,13,0.00,,,0.00,WUHU216DAVISVP2,2013-04-18 15:36:00,
2013-04-18 08:41:00,55.3,3.4,30.27,NNE,33,10.0,20.0,12,0.00,,,0.00,WUHU216DAVISVP2,2013-04-18 15:41:00,
2013-04-18 08:46:00,55.0,3.1,30.27,NNE,26,11.0,20.0,12,0.00,,,0.00,WUHU216DAVISVP2,2013-04-18 15:46:00,
2013-04-18 08:51:00,55.1,3.2,30.27,NE,34,13.0,17.0,12,0.00,,,0.00,WUHU216DAVISVP2,2013-04-18 15:51:00,
2013-04-18 08:56:00,55.1,3.2,30.26,NNE,32,7.0,17.0,12,0.00,,,0.00,WUHU216DAVISVP2,2013-04-18 15:56:00,
2013-04-18 09:01:00,55.4,3.4,30.26,NNE,30,8.0,16.0,12,0.00,,,0.00,WUHU216DAVISVP2,2013-04-18 16:01:00,
2013-04-18 09:06:00,55.6,3.6,30.26,NE,53,8.0,16.0,12,0.00,,,0.00,WUHU216DAVISVP2,2013-04-18 16:06:00,
2013-04-18 09:11:00,55.9,3.8,30.26,NNE,22,5.0,16.0,12,0.00,,,0.00,WUHU216DAVISVP2,2013-04-18 16:11:00,
2013-04-18 09:16:00,56.1,4.0,30.26,North,5,6.0,15.0,12,0.00,,,0.00,WUHU216DAVISVP2,2013-04-18 16:16:00,
2013-04-18 09:22:00,56.6,2.4,30.26,ENE,59,7.0,15.0,11,0.00,,,0.00,WUHU216DAVISVP2,2013-04-18 16:22:00,
2013-04-18 09:27:00,56.9,4.6,30.26,ENE,76,2.0,15.0,12,0.00,,,0.00,WUHU216DAVISVP2,2013-04-18 16:27:00,
2013-04-18 09:32:00,56.7,4.5,30.26,East,100,7.0,14.0,12,0.00,,,0.00,WUHU216DAVISVP2,2013-04-18 16:32:00,
2013-04-18 09:37:00,56.2,4.1,30.26,ESE,106,4.0,14.0,12,0.00,,,0.00,WUHU216DAVISVP2,2013-04-18 16:37:00,
2013-04-18 09:42:00,56.3,4.2,30.26,SE,144,4.0,12.0,12,0.00,,,0.00,WUHU216DAVISVP2,2013-04-18 16:42:00,
2013-04-18 09:47:00,56.5,4.4,30.26,ESE,111,5.0,11.0,12,0.00,,,0.00,WUHU216DAVISVP2,2013-04-18 16:47:00,
2013-04-18 09:52:00,56.6,4.5,30.26,SE,134,2.0,10.0,12,0.00,,,0.00,WUHU216DAVISVP2,2013-04-18 16:52:00,
2013-04-18 09:57:00,56.3,4.1,30.26,SSW,200,7.0,10.0,12,0.00,,,0.00,WUHU216DAVISVP2,2013-04-18 16:57:00,
2013-04-18 10:02:00,56.2,4.1,30.26,South,183,4.0,10.0,12,0.00,,,0.00,WUHU216DAVISVP2,2013-04-18 17:02:00,
2013-04-18 10:07:00,56.4,4.2,30.26,South,171,4.0,10.0,12,0.00,,,0.00,WUHU216DAVISVP2,2013-04-18 17:07:00,
2013-04-18 10:12:00,56.8,4.5,30.26,South,185,4.0,10.0,12,0.00,,,0.00,WUHU216DAVISVP2,2013-04-18 17:12:00,
2013-04-18 10:18:00,57.3,3.0,30.26,ESE,108,4.0,10.0,11,0.00,,,0.00,WUHU216DAVISVP2,2013-04-18 17:18:00,
2013-04-18 10:23:00,57.4,3.1,30.26,SSE,161,5.0,10.0,11,0.00,,,0.00,WUHU216DAVISVP2,2013-04-18 17:23:00,
2013-04-18 10:28:00,57.5,3.3,30.26,SSE,158,1.0,10.0,11,0.00,,,0.00,WUHU216DAVISVP2,2013-04-18 17:28:00,
2013-04-18 10:33:00,58.5,2.0,30.26,SE,133,4.0,10.0,10,0.00,,,0.00,WUHU216DAVISVP2,2013-04-18 17:33:00,
2013-04-18 10:38:00,58.6,-0.4,30.26,NE,46,9.0,11.0,9,0.00,,,0.00,WUHU216DAVISVP2,2013-04-18 17:38:00,
2013-04-18 10:43:00,58.7,-0.3,30.26,NNE,17,2.0,13.0,9,0.00,,,0.00,WUHU216DAVISVP2,2013-04-18 17:43:00,
2013-04-18 10:48:00,59.2,0.1,30.26,ENE,63,8.0,15.0,9,0.00,,,0.00,WUHU216DAVISVP2,2013-04-18 17:48:00,
2013-04-18 10:53:00,58.9,-0.2,30.26,ENE,63,3.0,15.0,9,0.00,,,0.00,WUHU216DAVISVP2,2013-04-18 17:53:00,
2013-04-18 10:58:00,59.4,0.4,30.26,NNE,13,12.0,14.0,9,0.00,,,0.00,WUHU216DAVISVP2,2013-04-18 17:58:00,
2013-04-18 11:03:00,59.5,0.5,30.26,NNW,346,9.0,16.0,9,0.00,,,0.00,WUHU216DAVISVP2,2013-04-18 18:03:00,
2013-04-18 11:08:00,59.4,0.2,30.25,NNE,26,5.0,16.0,9,0.00,,,0.00,WUHU216DAVISVP2,2013-04-18 18:08:00,
2013-04-18 11:13:00,60.0,0.7,30.25,NNE,17,9.0,16.0,9,0.00,,,0.00,WUHU216DAVISVP2,2013-04-18 18:13:00,
2013-04-18 11:19:00,60.8,-1.2,30.25,ENE,78,11.0,16.0,8,0.00,,,0.00,WUHU216DAVISVP2,2013-04-18 18:19:00,
2013-04-18 11:24:00,60.0,-1.6,30.25,ENE,57,4.0,13.0,8,0.00,,,0.00,WUHU216DAVISVP2,2013-04-18 18:24:00,
2013-04-18 11:29:00,60.3,1.1,30.25,SE,130,9.0,13.0,9,0.00,,,0.00,WUHU216DAVISVP2,2013-04-18 18:29:00,
2013-04-18 11:34:00,60.3,0.9,30.25,West,279,2.0,13.0,9,0.00,,,0.00,WUHU216DAVISVP2,2013-04-18 18:34:00,
2013-04-18 11:39:00,60.6,-1.4,30.25,NNE,17,6.0,14.0,8,0.00,,,0.00,WUHU216DAVISVP2,2013-04-18 18:39:00,
2013-04-18 11:44:00,61.0,-1.1,30.25,North,5,11.0,14.0,8,0.00,,,0.00,WUHU216DAVISVP2,2013-04-18 18:44:00,
2013-04-18 11:49:00,61.3,-0.6,30.24,NNW,346,6.0,14.0,8,0.00,,,0.00,WUHU216DAVISVP2,2013-04-18 18:49:00,
2013-04-18 11:54:00,61.3,-0.9,30.24,NNW,331,10.0,16.0,8,0.00,,,0.00,WUHU216DAVISVP2,2013-04-18 18:54:00,
2013-04-18 11:59:00,61.0,-1.1,30.24,NW,326,1.0,16.0,8,0.00,,,0.00,WUHU216DAVISVP2,2013-04-18 18:59:00,
2013-04-18 12:04:00,61.2,-0.9,30.23,NE,46,4.0,16.0,8,0.00,,,0.00,WUHU216DAVISVP2,2013-04-18 19:04:00,
2013-04-18 12:09:00,62.1,-0.3,30.23,ENE,78,2.0,14.0,8,0.00,,,0.00,WUHU216DAVISVP2,2013-04-18 19:09:00,
2013-04-18 12:14:00,62.0,-0.4,30.23,SSE,153,7.0,11.0,8,0.00,,,0.00,WUHU216DAVISVP2,2013-04-18 19:14:00,
2013-04-18 12:20:00,61.9,-0.4,30.23,SSE,148,1.0,11.0,8,0.00,,,0.00,WUHU216DAVISVP2,2013-04-18 19:20:00,
2013-04-18 12:25:00,62.1,-0.3,30.23,WNW,286,3.0,11.0,8,0.00,,,0.00,WUHU216DAVISVP2,2013-04-18 19:25:00,
2013-04-18 12:30:00,62.8,-2.5,30.23,NE,53,6.0,12.0,7,0.00,,,0.00,WUHU216DAVISVP2,2013-04-18 19:30:00,
2013-04-18 12:35:00,62.8,-2.5,30.23,ENE,59,0.0,12.0,7,0.00,,,0.00,WUHU216DAVISVP2,2013-04-18 19:35:00,
2013-04-18 12:40:00,62.9,-2.4,30.22,NNW,329,6.0,12.0,7,0.00,,,0.00,WUHU216DAVISVP2,2013-04-18 19:40:00,
2013-04-18 12:45:00,62.7,-2.6,30.22,NNE,30,7.0,12.0,7,0.00,,,0.00,WUHU216DAVISVP2,2013-04-18 19:45:00,
2013-04-18 12:50:00,62.7,-2.6,30.22,North,360,4.0,11.0,7,0.00,,,0.00,WUHU216DAVISVP2,2013-04-18 19:50:00,
2013-04-18 12:55:00,62.7,0.2,30.22,NW,307,7.0,11.0,8,0.00,,,0.00,WUHU216DAVISVP2,2013-04-18 19:55:00,
2013-04-18 13:01:00,62.4,-2.8,30.22,West,279,1.0,11.0,7,0.00,,,0.00,WUHU216DAVISVP2,2013-04-18 20:01:00,
2013-04-18 13:06:00,63.0,-2.4,30.22,East,96,3.0,11.0,7,0.00,,,0.00,WUHU216DAVISVP2,2013-04-18 20:06:00,
2013-04-18 13:11:00,63.2,-2.2,30.21,East,90,3.0,12.0,7,0.00,,,0.00,WUHU216DAVISVP2,2013-04-18 20:11:00,
2013-04-18 13:16:00,63.5,-2.0,30.21,SSE,160,4.0,12.0,7,0.00,,,0.00,WUHU216DAVISVP2,2013-04-18 20:16:00,
2013-04-18 13:21:00,63.5,-2.0,30.21,SSE,149,3.0,13.0,7,0.00,,,0.00,WUHU216DAVISVP2,2013-04-18 20:21:00,
2013-04-18 13:26:00,63.8,-1.8,30.21,SE,143,6.0,17.0,7,0.00,,,0.00,WUHU216DAVISVP2,2013-04-18 20:26:00,
2013-04-18 13:31:00,64.1,-1.6,30.21,SSE,151,7.0,17.0,7,0.00,,,0.00,WUHU216DAVISVP2,2013-04-18 20:31:00,
2013-04-18 13:36:00,64.1,-4.6,30.21,South,182,6.0,17.0,6,0.00,,,0.00,WUHU216DAVISVP2,2013-04-18 20:36:00,
2013-04-18 13:42:00,63.8,-1.8,30.21,SSE,147,8.0,17.0,7,0.00,,,0.00,WUHU216DAVISVP2,2013-04-18 20:42:00,
2013-04-18 13:47:00,63.5,-2.0,30.20,SSE,167,0.0,14.0,7,0.00,,,0.00,WUHU216DAVISVP2,2013-04-18 20:47:00,
2013-04-18 13:52:00,64.1,-1.6,30.20,South,189,10.0,14.0,7,0.00,,,0.00,WUHU216DAVISVP2,2013-04-18 20:52:00,
2013-04-18 13:57:00,64.0,-1.6,30.20,SSW,205,6.0,14.0,7,0.00,,,0.00,WUHU216DAVISVP2,2013-04-18 20:57:00,
2013-04-18 14:02:00,64.8,-1.1,30.19,SSW,208,4.0,14.0,7,0.00,,,0.00,WUHU216DAVISVP2,2013-04-18 21:02:00,
2013-04-18 14:07:00,64.9,-4.0,30.19,SSE,150,10.0,14.0,6,0.00,,,0.00,WUHU216DAVISVP2,2013-04-18 21:07:00,
2013-04-18 14:12:00,64.9,-4.0,30.19,SSW,200,3.0,16.0,6,0.00,,,0.00,WUHU216DAVISVP2,2013-04-18 21:12:00,
2013-04-18 14:17:00,64.8,-4.1,30.19,SSW,205,7.0,16.0,6,0.00,,,0.00,WUHU216DAVISVP2,2013-04-18 21:17:00,
2013-04-18 14:22:00,64.8,-4.1,30.19,SSW,208,5.0,16.0,6,0.00,,,0.00,WUHU216DAVISVP2,2013-04-18 21:22:00,
2013-04-18 14:27:00,65.4,-3.7,30.19,SSE,153,4.0,16.0,6,0.00,,,0.00,WUHU216DAVISVP2,2013-04-18 21:27:00,
2013-04-18 14:32:00,65.5,-3.6,30.18,ESE,119,7.0,11.0,6,0.00,,,0.00,WUHU216DAVISVP2,2013-04-18 21:32:00,
2013-04-18 14:38:00,65.5,-3.6,30.18,ENE,72,4.0,15.0,6,0.00,,,0.00,WUHU216DAVISVP2,2013-04-18 21:38:00,
2013-04-18 14:43:00,65.9,-3.3,30.18,ESE,111,5.0,15.0,6,0.00,,,0.00,WUHU216DAVISVP2,2013-04-18 21:43:00,
2013-04-18 14:48:00,66.1,-3.2,30.18,ESE,105,3.0,14.0,6,0.00,,,0.00,WUHU216DAVISVP2,2013-04-18 21:48:00,
2013-04-18 14:53:00,66.0,-3.2,30.18,ENE,57,3.0,14.0,6,0.00,,,0.00,WUHU216DAVISVP2,2013-04-18 21:53:00,
2013-04-18 14:58:00,66.5,-2.9,30.18,South,172,5.0,9.0,6,0.00,,,0.00,WUHU216DAVISVP2,2013-04-18 21:58:00,
2013-04-18 15:03:00,66.4,-2.9,30.17,South,176,3.0,10.0,6,0.00,,,0.00,WUHU216DAVISVP2,2013-04-18 22:03:00,
2013-04-18 15:08:00,66.2,-3.1,30.17,SSE,151,6.0,16.0,6,0.00,,,0.00,WUHU216DAVISVP2,2013-04-18 22:08:00,
2013-04-18 15:13:00,66.5,-6.3,30.17,SE,134,0.0,16.0,5,0.00,,,0.00,WUHU216DAVISVP2,2013-04-18 22:13:00,
2013-04-18 15:18:00,66.7,-6.1,30.16,South,182,10.0,16.0,5,0.00,,,0.00,WUHU216DAVISVP2,2013-04-18 22:18:00,
2013-04-18 15:23:00,66.2,-6.9,30.16,SSW,213,7.0,16.0,5,0.00,,,0.00,WUHU216DAVISVP2,2013-04-18 22:23:00,
2013-04-18 15:28:00,66.6,-6.2,30.16,SSW,199,5.0,13.0,5,0.00,,,0.00,WUHU216DAVISVP2,2013-04-18 22:28:00,
2013-04-18 15:33:00,66.8,-6.0,30.16,SE,140,14.0,15.0,5,0.00,,,0.00,WUHU216DAVISVP2,2013-04-18 22:33:00,
2013-04-18 15:38:00,66.7,-6.1,30.16,SSE,159,3.0,16.0,5,0.00,,,0.00,WUHU216DAVISVP2,2013-04-18 22:38:00,
2013-04-18 15:44:00,67.0,-5.9,30.16,ESE,105,9.0,16.0,5,0.00,,,0.00,WUHU216DAVISVP2,2013-04-18 22:44:00,
2013-04-18 15:49:00,66.7,-6.1,30.16,ESE,120,1.0,16.0,5,0.00,,,0.00,WUHU216DAVISVP2,2013-04-18 22:49:00,
2013-04-18 15:54:00,66.7,-6.5,30.16,SSE,151,12.0,13.0,5,0.00,,,0.00,WUHU216DAVISVP2,2013-04-18 22:54:00,
2013-04-18 15:59:00,66.7,-6.5,30.15,SE,128,7.0,13.0,5,0.00,,,0.00,WUHU216DAVISVP2,2013-04-18 22:59:00,
2013-04-18 16:04:00,67.0,-6.3,30.15,SSE,149,8.0,13.0,5,0.00,,,0.00,WUHU216DAVISVP2,2013-04-18 23:04:00,
2013-04-18 16:09:00,67.0,-5.9,30.15,East,96,6.0,14.0,5,0.00,,,0.00,WUHU216DAVISVP2,2013-04-18 23:09:00,
2013-04-18 16:14:00,67.3,-5.7,30.15,SE,140,12.0,14.0,5,0.00,,,0.00,WUHU216DAVISVP2,2013-04-18 23:14:00,
2013-04-18 16:19:00,67.2,-5.8,30.15,SE,144,4.0,14.0,5,0.00,,,0.00,WUHU216DAVISVP2,2013-04-18 23:19:00,
2013-04-18 16:24:00,67.3,-5.7,30.15,East,90,8.0,14.0,5,0.00,,,0.00,WUHU216DAVISVP2,2013-04-18 23:24:00,
2013-04-18 16:29:00,67.1,-5.8,30.15,East,99,7.0,12.0,5,0.00,,,0.00,WUHU216DAVISVP2,2013-04-18 23:29:00,
2013-04-18 16:34:00,67.1,-6.2,30.15,SE,130,2.0,11.0,5,0.00,,,0.00,WUHU216DAVISVP2,2013-04-18 23:34:00,
2013-04-18 16:39:00,67.7,-5.8,30.14,SE,146,6.0,11.0,5,0.00,,,0.00,WUHU216DAVISVP2,2013-04-18 23:39:00,
2013-04-18 16:45:00,67.9,-5.7,30.14,SE,146,2.0,11.0,5,0.00,,,0.00,WUHU216DAVISVP2,2013-04-18 23:45:00,
2013-04-18 16:50:00,68.0,-5.2,30.14,SSE,148,7.0,10.0,5,0.00,,,0.00,WUHU216DAVISVP2,2013-04-18 23:50:00,
2013-04-18 16:55:00,68.0,-5.2,30.14,SSW,202,7.0,10.0,5,0.00,,,0.00,WUHU216DAVISVP2,2013-04-18 23:55:00,
2013-04-18 17:00:00,68.1,-5.1,30.14,South,170,2.0,11.0,5,0.00,,,0.00,WUHU216DAVISVP2,2013-04-19 00:00:00,
2013-04-18 17:05:00,68.2,-5.0,30.14,SSE,156,5.0,11.0,5,0.00,,,0.00,WUHU216DAVISVP2,2013-04-19 00:05:00,
2013-04-18 17:10:00,67.9,-5.3,30.14,SSE,151,8.0,11.0,5,0.00,,,0.00,WUHU216DAVISVP2,2013-04-19 00:10:00,
2013-04-18 17:15:00,67.9,-5.3,30.14,SSE,162,7.0,11.0,5,0.00,,,0.00,WUHU216DAVISVP2,2013-04-19 00:15:00,
2013-04-18 17:20:00,68.3,-5.0,30.14,SSE,162,5.0,11.0,5,0.00,,,0.00,WUHU216DAVISVP2,2013-04-19 00:20:00,
2013-04-18 17:25:00,68.6,-5.2,30.14,SSE,162,0.0,11.0,5,0.00,,,0.00,WUHU216DAVISVP2,2013-04-19 00:25:00,
2013-04-18 17:30:00,68.7,-9.7,30.14,SSE,162,0.0,7.0,4,0.00,,,0.00,WUHU216DAVISVP2,2013-04-19 00:30:00,
2013-04-18 17:35:00,68.4,-5.3,30.14,South,178,6.0,9.0,5,0.00,,,0.00,WUHU216DAVISVP2,2013-04-19 00:35:00,
2013-04-18 17:40:00,68.3,-5.0,30.14,South,177,6.0,9.0,5,0.00,,,0.00,WUHU216DAVISVP2,2013-04-19 00:40:00,
2013-04-18 17:46:00,67.9,-5.3,30.14,SE,141,2.0,10.0,5,0.00,,,0.00,WUHU216DAVISVP2,2013-04-19 00:46:00,
2013-04-18 17:51:00,68.1,-5.1,30.14,SSE,161,6.0,10.0,5,0.00,,,0.00,WUHU216DAVISVP2,2013-04-19 00:51:00,
2013-04-18 17:56:00,68.3,-5.0,30.14,South,186,7.0,10.0,5,0.00,,,0.00,WUHU216DAVISVP2,2013-04-19 00:56:00,
2013-04-18 18:01:00,68.0,-5.2,30.14,SSE,167,1.0,10.0,5,0.00,,,0.00,WUHU216DAVISVP2,2013-04-19 01:01:00,
2013-04-18 18:06:00,67.8,-5.3,30.14,SE,134,7.0,10.0,5,0.00,,,0.00,WUHU216DAVISVP2,2013-04-19 01:06:00,
2013-04-18 18:11:00,67.7,-5.4,30.14,SSE,156,5.0,10.0,5,0.00,,,0.00,WUHU216DAVISVP2,2013-04-19 01:11:00,
2013-04-18 18:16:00,67.7,-5.4,30.14,SSE,155,3.0,10.0,5,0.00,,,0.00,WUHU216DAVISVP2,2013-04-19 01:16:00,
2013-04-18 18:21:00,67.7,-5.4,30.14,SSE,156,3.0,10.0,5,0.00,,,0.00,WUHU216DAVISVP2,2013-04-19 01:21:00,
2013-04-18 18:26:00,67.7,-5.4,30.14,SSE,156,2.0,10.0,5,0.00,,,0.00,WUHU216DAVISVP2,2013-04-19 01:26:00,
2013-04-18 18:31:00,67.9,-5.3,30.14,SSE,156,4.0,8.0,5,0.00,,,0.00,WUHU216DAVISVP2,2013-04-19 01:31:00,
2013-04-18 18:36:00,67.9,-5.3,30.14,SSE,156,2.0,8.0,5,0.00,,,0.00,WUHU216DAVISVP2,2013-04-19 01:36:00,
2013-04-18 18:41:00,67.8,-5.3,30.14,SSE,156,3.0,6.0,5,0.00,,,0.00,WUHU216DAVISVP2,2013-04-19 01:41:00,
2013-04-18 18:47:00,67.5,-5.5,30.14,SSE,157,5.0,7.0,5,0.00,,,0.00,WUHU216DAVISVP2,2013-04-19 01:47:00,
2013-04-18 18:52:00,67.4,-5.6,30.14,SSE,158,6.0,7.0,5,0.00,,,0.00,WUHU216DAVISVP2,2013-04-19 01:52:00,
2013-04-18 18:57:00,67.2,-5.8,30.14,SSE,158,3.0,7.0,5,0.00,,,0.00,WUHU216DAVISVP2,2013-04-19 01:57:00,
2013-04-18 19:02:00,66.9,-6.0,30.14,SSE,158,5.0,6.0,5,0.00,,,0.00,WUHU216DAVISVP2,2013-04-19 02:02:00,
2013-04-18 19:07:00,66.4,-6.3,30.14,South,169,5.0,7.0,5,0.00,,,0.00,WUHU216DAVISVP2,2013-04-19 02:07:00,
2013-04-18 19:12:00,65.9,-3.3,30.14,South,169,3.0,7.0,6,0.00,,,0.00,WUHU216DAVISVP2,2013-04-19 02:12:00,
2013-04-18 19:17:00,65.5,-3.6,30.14,South,174,4.0,7.0,6,0.00,,,0.00,WUHU216DAVISVP2,2013-04-19 02:17:00,
2013-04-18 19:22:00,65.3,-3.7,30.14,South,174,4.0,7.0,6,0.00,,,0.00,WUHU216DAVISVP2,2013-04-19 02:22:00,
2013-04-18 19:27:00,65.0,-4.0,30.14,South,174,5.0,6.0,6,0.00,,,0.00,WUHU216DAVISVP2,2013-04-19 02:27:00,
2013-04-18 19:32:00,64.7,-4.2,30.15,South,174,3.0,6.0,6,0.00,,,0.00,WUHU216DAVISVP2,2013-04-19 02:32:00,
2013-04-18 19:37:00,64.3,-4.5,30.15,South,174,3.0,6.0,6,0.00,,,0.00,WUHU216DAVISVP2,2013-04-19 02:37:00,
2013-04-18 19:43:00,64.1,-4.6,30.14,South,174,2.0,6.0,6,0.00,,,0.00,WUHU216DAVISVP2,2013-04-19 02:43:00,
2013-04-18 19:48:00,64.0,-4.7,30.15,South,191,1.0,8.0,6,0.00,,,0.00,WUHU216DAVISVP2,2013-04-19 02:48:00,
2013-04-18 19:53:00,63.0,-5.4,30.15,South,191,4.0,8.0,6,0.00,,,0.00,WUHU216DAVISVP2,2013-04-19 02:53:00,
2013-04-18 19:58:00,60.6,-4.1,30.15,South,191,6.0,8.0,7,0.00,,,0.00,WUHU216DAVISVP2,2013-04-19 02:58:00,
2013-04-18 20:03:00,59.4,-5.0,30.15,SSW,193,5.0,7.0,7,0.00,,,0.00,WUHU216DAVISVP2,2013-04-19 03:03:00,
2013-04-18 20:08:00,59.3,-5.1,30.15,SSW,193,4.0,7.0,7,0.00,,,0.00,WUHU216DAVISVP2,2013-04-19 03:08:00,
2013-04-18 20:13:00,59.5,-5.0,30.15,SSW,193,5.0,7.0,7,0.00,,,0.00,WUHU216DAVISVP2,2013-04-19 03:13:00,
2013-04-18 20:18:00,59.3,-5.1,30.16,SSW,193,5.0,7.0,7,0.00,,,0.00,WUHU216DAVISVP2,2013-04-19 03:18:00,
2013-04-18 20:23:00,58.5,-5.7,30.16,SSW,193,5.0,6.0,7,0.00,,,0.00,WUHU216DAVISVP2,2013-04-19 03:23:00,
2013-04-18 20:28:00,57.7,-6.3,30.16,SW,214,5.0,6.0,7,0.00,,,0.00,WUHU216DAVISVP2,2013-04-19 03:28:00,
2013-04-18 20:33:00,56.8,-4.0,30.16,SW,234,4.0,7.0,8,0.00,,,0.00,WUHU216DAVISVP2,2013-04-19 03:33:00,
2013-04-18 20:38:00,56.0,-4.6,30.16,SW,234,3.0,7.0,8,0.00,,,0.00,WUHU216DAVISVP2,2013-04-19 03:38:00,
2013-04-18 20:43:00,55.8,-4.8,30.17,SW,234,2.0,7.0,8,0.00,,,0.00,WUHU216DAVISVP2,2013-04-19 03:43:00,
2013-04-18 20:49:00,56.0,-4.6,30.17,SW,234,3.0,6.0,8,0.00,,,0.00,WUHU216DAVISVP2,2013-04-19 03:49:00,
2013-04-18 20:54:00,56.3,-4.6,30.17,SW,234,4.0,5.0,8,0.00,,,0.00,WUHU216DAVISVP2,2013-04-19 03:54:00,
2013-04-18 20:59:00,56.0,-4.8,30.17,SW,234,5.0,6.0,8,0.00,,,0.00,WUHU216DAVISVP2,2013-04-19 03:59:00,
2013-04-18 21:04:00,55.5,-5.2,30.17,SW,234,0.0,6.0,8,0.00,,,0.00,WUHU216DAVISVP2,2013-04-19 04:04:00,
2013-04-18 21:09:00,54.7,-3.4,30.17,SW,234,4.0,6.0,9,0.00,,,0.00,WUHU216DAVISVP2,2013-04-19 04:09:00,
2013-04-18 21:14:00,54.8,-3.3,30.18,SW,234,3.0,6.0,9,0.00,,,0.00,WUHU216DAVISVP2,2013-04-19 04:14:00,
2013-04-18 21:19:00,54.1,-3.8,30.18,SW,234,6.0,6.0,9,0.00,,,0.00,WUHU216DAVISVP2,2013-04-19 04:19:00,
2013-04-18 21:24:00,53.1,-4.4,30.18,WSW,239,5.0,6.0,9,0.00,,,0.00,WUHU216DAVISVP2,2013-04-19 04:24:00,
2013-04-18 21:29:00,52.6,-2.6,30.18,WSW,240,5.0,6.0,10,0.00,,,0.00,WUHU216DAVISVP2,2013-04-19 04:29:00,
2013-04-18 21:34:00,53.0,1.6,30.18,NW,315,6.0,7.0,12,0.00,,,0.00,WUHU216DAVISVP2,2013-04-19 04:34:00,
2013-04-18 21:39:00,53.8,2.2,30.18,NW,318,5.0,7.0,12,0.00,,,0.00,WUHU216DAVISVP2,2013-04-19 04:39:00,
2013-04-18 21:44:00,53.6,2.0,30.18,NW,322,3.0,7.0,12,0.00,,,0.00,WUHU216DAVISVP2,2013-04-19 04:44:00,
2013-04-18 21:50:00,52.4,2.8,30.18,NW,322,5.0,7.0,13,0.00,,,0.00,WUHU216DAVISVP2,2013-04-19 04:50:00,
2013-04-18 21:55:00,51.7,3.9,30.19,NW,322,4.0,7.0,14,0.00,,,0.00,WUHU216DAVISVP2,2013-04-19 04:55:00,
2013-04-18 22:00:00,51.7,5.4,30.19,NNW,329,3.0,6.0,15,0.00,,,0.00,WUHU216DAVISVP2,2013-04-19 05:00:00,
2013-04-18 22:05:00,51.2,5.0,30.19,NNW,335,5.0,6.0,15,0.00,,,0.00,WUHU216DAVISVP2,2013-04-19 05:05:00,
2013-04-18 22:10:00,51.1,6.4,30.19,NNW,338,5.0,7.0,16,0.00,,,0.00,WUHU216DAVISVP2,2013-04-19 05:10:00,
2013-04-18 22:15:00,51.1,6.4,30.19,NNW,338,5.0,7.0,16,0.00,,,0.00,WUHU216DAVISVP2,2013-04-19 05:15:00,
2013-04-18 22:20:00,50.4,5.8,30.19,NNW,338,4.0,7.0,16,0.00,,,0.00,WUHU216DAVISVP2,2013-04-19 05:20:00,
2013-04-18 22:25:00,50.2,4.2,30.19,NNW,337,8.0,8.0,15,0.00,,,0.00,WUHU216DAVISVP2,2013-04-19 05:25:00,
2013-04-18 22:30:00,50.3,7.1,30.19,NNW,329,4.0,8.0,17,0.00,,,0.00,WUHU216DAVISVP2,2013-04-19 05:30:00,
2013-04-18 22:35:00,49.5,7.7,30.19,NNW,329,3.0,8.0,18,0.00,,,0.00,WUHU216DAVISVP2,2013-04-19 05:35:00,
2013-04-18 22:40:00,49.5,6.4,30.18,NNW,348,7.0,8.0,17,0.00,,,0.00,WUHU216DAVISVP2,2013-04-19 05:40:00,
2013-04-18 22:45:00,50.3,8.3,30.18,North,360,5.0,9.0,18,0.00,,,0.00,WUHU216DAVISVP2,2013-04-19 05:45:00,
2013-04-18 22:50:00,50.7,9.9,30.19,North,355,4.0,9.0,19,0.00,,,0.00,WUHU216DAVISVP2,2013-04-19 05:50:00,
2013-04-18 22:56:00,50.5,8.5,30.19,North,355,4.0,9.0,18,0.00,,,0.00,WUHU216DAVISVP2,2013-04-19 05:56:00,
2013-04-18 23:01:00,50.4,8.4,30.19,North,355,5.0,8.0,18,0.00,,,0.00,WUHU216DAVISVP2,2013-04-19 06:01:00,
2013-04-18 23:06:00,50.3,8.3,30.19,North,355,3.0,7.0,18,0.00,,,0.00,WUHU216DAVISVP2,2013-04-19 06:06:00,
2013-04-18 23:11:00,49.3,8.7,30.19,North,355,4.0,6.0,19,0.00,,,0.00,WUHU216DAVISVP2,2013-04-19 06:11:00,
2013-04-18 23:16:00,49.0,9.6,30.19,North,355,6.0,6.0,20,0.00,,,0.00,WUHU216DAVISVP2,2013-04-19 06:16:00,
2013-04-18 23:21:00,49.0,9.6,30.19,North,355,5.0,6.0,20,0.00,,,0.00,WUHU216DAVISVP2,2013-04-19 06:21:00,
2013-04-18 23:26:00,48.7,8.2,30.19,North,351,5.0,7.0,19,0.00,,,0.00,WUHU216DAVISVP2,2013-04-19 06:26:00,
2013-04-18 23:31:00,48.3,9.0,30.19,North,351,4.0,7.0,20,0.00,,,0.00,WUHU216DAVISVP2,2013-04-19 06:31:00,
2013-04-18 23:36:00,47.9,8.7,30.19,North,351,4.0,7.0,20,0.00,,,0.00,WUHU216DAVISVP2,2013-04-19 06:36:00,
2013-04-18 23:41:00,48.1,9.9,30.19,North,351,5.0,7.0,21,0.00,,,0.00,WUHU216DAVISVP2,2013-04-19 06:41:00,
2013-04-18 23:46:00,48.1,7.7,30.19,NNW,345,5.0,7.0,19,0.00,,,0.00,WUHU216DAVISVP2,2013-04-19 06:46:00,
2013-04-18 23:51:00,47.9,8.7,30.19,NNW,344,5.0,7.0,20,0.00,,,0.00,WUHU216DAVISVP2,2013-04-19 06:51:00,
2013-04-18 23:56:00,48.0,8.7,30.19,NNW,346,7.0,8.0,20,0.00,,,0.00,WUHU216DAVISVP2,2013-04-19 06:56:00,